Tracking 19638 objects as of 20-May-2019
HD Live streaming from Space Station
objects crossing your sky now

EUTE 12 WEST A (AB 1)

Track EUTE 12 WEST A (AB 1) now!
EUTE 12 WEST A (AB 1) is classified as:


NORAD ID: 27508
Int'l Code: 2002-040A
Perigee: 36,326.4 km
Apogee: 36,389.9 km
Inclination: 0.8 °
Period: 1,465.0 minutes
Semi major axis: 42729 km
RCS: 16.1652 m2 (large)
Launch date: August 28, 2002
Source: European Telecommunications Satellite Organization (EUTE)
Launch site: FRENCH GUIANA (FRGUI)

Twenty channels, telecommunications services between Europe and the Americas.
aabbcc
Your satellite tracking list
Your tracking list is empty




NASA's NSSDC Master Catalog

Two Line Element Set (TLE):
1 27508U 02040A   19140.46970215  .00000002  00000-0  00000+0 0  9998
2 27508   0.8057  90.7319 0007432 291.5453 105.6704  0.98291545 61292
Source of the keplerian elements: AFSPC